[[{"header":{"parameterUnit":"m.s-1","parameterCategory":1,"la1":30.2991,"la2":30.254,"lo1":-89.0895,"lo2":-89.0444,"dy":0.0017,"dx":0.0017,"nx":28,"ny":28,"refTime":"2026-02-17T03:00:00:Z","depth":0,"parameterNumber":2,"parameterNumberName":"U-component_of_WINDS"},"data":[0,0,0,0,0,0,0,0,0,0,0,0,0,0,0,0,0,0,0,0,0,0,0,0,0,0,0,0,0,0,0,0,0,0,0,0,0,0,0,0,0,0,0,0,0,0,0,0,0,0,0,0,0,0,0,0,0,0,0.5035,0.5034,0,0.4979,0.4979,0.4978,0.4977,0.4978,0.4978,0.4979,0.4924,0.4922,0.492,0,0,0,0,0,0,0,0,0,0,0,0,0,0.5144,0.5142,0.5035,0.5034,0.5034,0.498,0.4979,0.4978,0.4977,0.4978,0.4979,0.4979,0.4924,0.4922,0.4919,0,0,0,0,0,0,0,0,0,0,0,0,0,0.5094,0.5142,0.5035,0.5026,0.5025,0.498,0.4979,0.4978,0.4977,0.4978,0.4979,0.498,0.4925,0.4922,0.4919,0.4879,0,0,0.4909,0.4908,0,0,0,0,0,0,0,0,0.5097,0.509,0.5028,0.5027,0.5025,0.4986,0.4997,0.4945,0.4976,0.4995,0.4979,0.498,0.4944,0.4939,0.4927,0.4876,0.4874,0.4909,0.4907,0.4906,0.4905,0,0,0,0,0,0,0,0.51,0.5092,0.5013,0.5028,0.5026,0.5027,0.5021,0.4987,0.4964,0.4994,0.4993,0.4987,0.4943,0.493,0.4925,0.4873,0.4909,0.4906,0.4904,0.4903,0.4792,0.4791,0,0,0,0,0,0,0.5105,0.5095,0.5015,0.5011,0.5064,0.5024,0.5017,0.4998,0.4965,0.4961,0.4986,0.4987,0.4935,0.4929,0.4923,0.4877,0.4906,0.4903,0.4901,0.4793,0.4792,0.479,0,0,0,0,0,0,0.5107,0.5098,0.5017,0.5053,0.5043,0.5021,0.4999,0.4996,0.4982,0.4959,0.4955,0.4976,0.4935,0.4928,0.4891,0.4875,0.4902,0.4899,0.4794,0.4792,0.4791,0.4781,0,0,0,0,0,0,0.511,0.5099,0.5082,0.5053,0.5041,0.4984,0.4998,0.4994,0.4977,0.4978,0.4949,0.4945,0.4935,0.4896,0.4888,0.4871,0.4896,0.4795,0.4793,0.4792,0.4783,0.478,0.4777,0,0,0,0,0,0.5114,0.508,0.5081,0.5071,0.5019,0.4983,0.4976,0.4966,0.4975,0.4959,0.4945,0.4946,0.4878,0.4892,0.4883,0.4865,0.4796,0.4794,0.4792,0.4784,0.478,0.4777,0,0,0,0,0,0,0.5107,0.5076,0.5076,0.5032,0.501,0.4983,0.4962,0.4961,0.4936,0.4938,0.4927,0.492,0.4884,0.4871,0.4887,0.4826,0.4839,0.4834,0.4836,0.4832,0.4829,0.4833,0.4894,0,0,0,0,0,0.5101,0.5073,0.5048,0.5011,0.5,0.4983,0.4967,0.4961,0.4938,0.4929,0.4912,0.489,0.4865,0.4848,0.4822,0.4782,0.4777,0.4765,0.4762,0.476,0.4756,0.4737,0.4732,0.4783,0.4783,0.4783,0,0,0.5086,0.5066,0.5049,0.5009,0.4992,0.4965,0.4975,0.4945,0.4926,0.4924,0.4889,0.4876,0.4852,0.4814,0.4796,0.4801,0.4742,0.4757,0.4755,0.4752,0.4734,0.4729,0.4725,0.4781,0.4781,0.4782,0,0,0.5047,0.5028,0.4997,0.498,0.4954,0.4943,0.4936,0.491,0.4901,0.4866,0.4865,0.4843,0.4798,0.4781,0.4767,0.4727,0.4728,0.4719,0.4702,0.4684,0.468,0.4677,0.4664,0.466,0.4716,0.4716,0.4716,0,0.5032,0.4991,0.4981,0.4952,0.4936,0.4935,0.4905,0.4889,0.4856,0.4846,0.4853,0.4799,0.4782,0.4742,0.4732,0.472,0.4713,0.4722,0.4681,0.4678,0.4674,0.4663,0.4658,0.4715,0.4715,0.4715,0.4715,0,0.4976,0.4948,0.4926,0.4895,0.4877,0.4848,0.4836,0.4818,0.4816,0.4805,0.4771,0.4752,0.4724,0.4714,0.471,0.4674,0.4679,0.4684,0.4696,0.4669,0.4658,0.4653,0.4714,0.4714,0.4714,0.4714,0,0,0.4927,0.4895,0.4887,0.4875,0.4848,0.4827,0.4799,0.4773,0.476,0.4738,0.4716,0.468,0.4686,0.467,0.4664,0.4648,0.4621,0.4655,0.4655,0.4651,0.4583,0.4581,0.4575,0.4622,0.4621,0.462,0.4586,0,0.4886,0.4836,0.4829,0.4786,0.4761,0.4762,0.4739,0.4721,0.4712,0.4691,0.4681,0.4656,0.4664,0.4655,0.4639,0.4627,0.4607,0.463,0.4603,0.4602,0.4609,0.4569,0.4565,0.4534,0.4581,0.4581,0.458,0,0.483,0.4809,0.4764,0.4744,0.4734,0.4712,0.469,0.4669,0.4651,0.4645,0.463,0.4627,0.4601,0.4615,0.458,0.4596,0.4585,0.4578,0.4577,0.4574,0.4589,0.4567,0.4523,0.4519,0.4573,0.4573,0.4574,0,0.4802,0.4762,0.4731,0.472,0.4696,0.4682,0.4671,0.4653,0.4639,0.462,0.4611,0.4589,0.4577,0.4561,0.4553,0.4564,0.452,0.4532,0.4516,0.4517,0.4507,0.4507,0.4462,0.4498,0.4498,0.4498,0.4499,0,0.4757,0.473,0.4718,0.4699,0.467,0.4663,0.4635,0.4625,0.461,0.459,0.459,0.4571,0.4563,0.4544,0.4538,0.4512,0.4506,0.4502,0.4501,0.4503,0.4503,0.4495,0.4498,0.4497,0.4497,0.4498,0.4498,0,0.4719,0.471,0.4677,0.4658,0.4653,0.4633,0.4617,0.46,0.4592,0.4568,0.4562,0.455,0.4528,0.4519,0.4492,0.4489,0.4459,0.4459,0.4465,0.4465,0.445,0.4452,0.4399,0.4392,0.4431,0.4431,0.4431,0,0.4691,0.4671,0.4651,0.4638,0.4628,0.4607,0.4593,0.4587,0.4573,0.4553,0.4539,0.4517,0.4499,0.4465,0.4454,0.4435,0.4435,0.4418,0.4432,0.4435,0.4437,0.4438,0.4438,0.4415,0.4415,0.4415,0.4414,0,0.4643,0.4641,0.4621,0.4602,0.4586,0.457,0.4554,0.4544,0.4536,0.4521,0.4499,0.4485,0.446,0.4439,0.4419,0.441,0.4412,0.441,0.4406,0.4407,0.4412,0.4411,0.4459,0.4411,0.4412,0.4412,0.4412,0.4412,0.4611,0.4594,0.4579,0.4558,0.4547,0.4533,0.4517,0.4508,0.449,0.4469,0.4467,0.4444,0.443,0.4404,0.4394,0.4377,0.4382,0.4375,0.4373,0.4372,0.4372,0.4415,0.4373,0.4373,0.4373,0.4374,0.4374,0,0.4564,0.4556,0.4537,0.4516,0.4501,0.4505,0.4489,0.4476,0.4456,0.4443,0.4426,0.4403,0.4384,0.4374,0.4355,0.4344,0.4345,0.434,0.4341,0.4339,0.4367,0.4374,0.434,0.434,0.434,0.434,0.434,0.434,0.4538,0.4512,0.4508,0.4477,0.4468,0.4446,0.4437,0.4426,0.4416,0.439,0.4375,0.4368,0.4357,0.4338,0.4322,0.432,0.4314,0.4308,0.4306,0.4333,0.4337,0.434,0.4346,0.4307,0.4307,0.428,0.4279,0.4279]},{"header":{"parameterUnit":"m.s-1","parameterCategory":1,"la1":30.2991,"la2":30.254,"lo1":-89.0895,"lo2":-89.0444,"dy":0.0017,"dx":0.0017,"nx":28,"ny":28,"refTime":"2026-02-17T03:00:00:Z","depth":0,"parameterNumber":3,"parameterNumberName":"V-component_of_WINDS"},"data":[0,0,0,0,0,0,0,0,0,0,0,0,0,0,0,0,0,0,0,0,0,0,0,0,0,0,0,0,0,0,0,0,0,0,0,0,0,0,0,0,0,0,0,0,0,0,0,0,0,0,0,0,0,0,0,0,0,0,2.9075,2.9075,0,2.9058,2.9058,2.9058,2.9076,2.9077,2.9078,2.9078,2.9059,2.9058,2.9057,0,0,0,0,0,0,0,0,0,0,0,0,0,2.9123,2.9122,2.9075,2.9074,2.9074,2.9058,2.9058,2.9058,2.9076,2.9077,2.9078,2.9079,2.9059,2.9058,2.9057,0,0,0,0,0,0,0,0,0,0,0,0,0,2.9104,2.9122,2.9075,2.9082,2.9082,2.9058,2.9058,2.9058,2.9076,2.9077,2.9078,2.9079,2.906,2.9058,2.9056,2.9025,0,0,2.9051,2.905,0,0,0,0,0,0,0,0,2.9105,2.9102,2.9081,2.9081,2.9082,2.9071,2.9068,2.9047,2.9076,2.9078,2.9078,2.908,2.9062,2.906,2.9055,2.9024,2.9023,2.9051,2.905,2.9049,2.9049,0,0,0,0,0,0,0,2.9106,2.9103,2.9068,2.908,2.9081,2.9086,2.9084,2.9064,2.9064,2.9078,2.9079,2.9077,2.9062,2.9056,2.9054,2.9023,2.9051,2.9049,2.9048,2.9048,2.8971,2.897,0,0,0,0,0,0,2.9107,2.9104,2.9069,2.9068,2.9096,2.9084,2.9082,2.9073,2.9065,2.9064,2.9076,2.9078,2.9059,2.9056,2.9054,2.9019,2.9049,2.9048,2.9047,2.8972,2.8971,2.897,0,0,0,0,0,0,2.9108,2.9104,2.9069,2.9086,2.9082,2.9082,2.9071,2.9072,2.9066,2.9063,2.9063,2.907,2.9059,2.9056,2.9033,2.9019,2.9047,2.9045,2.8973,2.8972,2.897,2.8948,0,0,0,0,0,0,2.9109,2.9104,2.9091,2.9086,2.9081,2.9048,2.907,2.9071,2.9063,2.9065,2.9057,2.9057,2.906,2.9036,2.9032,2.9017,2.9044,2.8974,2.8973,2.8971,2.895,2.8946,2.8943,0,0,0,0,0,2.9111,2.9083,2.909,2.9086,2.9065,2.9047,2.9045,2.9049,2.9062,2.905,2.9049,2.9057,2.9021,2.9033,2.9029,2.9013,2.8975,2.8973,2.8971,2.8952,2.8947,2.8943,0,0,0,0,0,0,2.9084,2.9083,2.909,2.906,2.9054,2.9051,2.9035,2.9043,2.9033,2.9035,2.9041,2.9039,2.9015,2.9012,2.9025,2.8985,2.9001,2.8997,2.8988,2.8983,2.8979,2.8981,2.9042,0,0,0,0,0,2.9075,2.9061,2.9061,2.9034,2.9031,2.9034,2.9026,2.9031,2.9025,2.9022,2.9019,2.9012,2.9,2.8991,2.8979,2.8951,2.8951,2.8938,2.8935,2.8931,2.8928,2.8917,2.8913,2.8962,2.8963,2.8963,0,0,2.9055,2.9053,2.9043,2.9029,2.9025,2.9012,2.9031,2.9014,2.9005,2.9019,2.8998,2.8996,2.899,2.8965,2.8954,2.8961,2.8915,2.8929,2.8926,2.8925,2.8915,2.891,2.8906,2.8961,2.8961,2.8961,0,0,2.9013,2.9009,2.8989,2.8986,2.8981,2.8984,2.8979,2.8976,2.8976,2.8956,2.8968,2.8957,2.8934,2.893,2.8925,2.8889,2.8897,2.8885,2.8865,2.8854,2.885,2.8847,2.8836,2.8832,2.8882,2.8882,2.8882,0,2.8989,2.8969,2.8977,2.8962,2.8957,2.8972,2.8953,2.8949,2.894,2.8936,2.8945,2.8922,2.8917,2.8894,2.8886,2.8881,2.8878,2.8885,2.885,2.8847,2.8844,2.8834,2.883,2.888,2.8881,2.8881,2.8881,0,2.8942,2.8928,2.8913,2.8907,2.89,2.8882,2.8889,2.8882,2.8889,2.8891,2.8873,2.887,2.886,2.8855,2.886,2.8834,2.8839,2.8849,2.8865,2.8837,2.8829,2.8825,2.8879,2.8879,2.8879,2.888,0,0,2.8878,2.8881,2.8876,2.8875,2.8873,2.8863,2.8849,2.8841,2.8836,2.883,2.8819,2.8803,2.8814,2.8809,2.8814,2.8805,2.878,2.8816,2.8816,2.8811,2.8755,2.8748,2.8744,2.8787,2.8786,2.8785,2.8757,0,2.8838,2.8813,2.8823,2.8797,2.8787,2.8804,2.8792,2.879,2.8794,2.8786,2.879,2.8779,2.8793,2.8791,2.8782,2.8785,2.8769,2.8787,2.8778,2.8777,2.8779,2.8738,2.873,2.8703,2.8753,2.8752,2.8752,0,2.8787,2.8783,2.8757,2.8763,2.8758,2.8747,2.8744,2.8736,2.8736,2.8739,2.8736,2.8746,2.8734,2.875,2.8735,2.8747,2.8745,2.8746,2.8745,2.8744,2.8763,2.8738,2.8694,2.869,2.8746,2.8746,2.8747,0,2.8746,2.8734,2.8719,2.8718,2.8722,2.8715,2.8716,2.8718,2.8714,2.8711,2.871,2.8705,2.8702,2.8699,2.8708,2.8719,2.8693,2.8709,2.8697,2.8697,2.8689,2.869,2.8645,2.8686,2.8687,2.8687,2.8687,0,2.8701,2.8685,2.8702,2.8692,2.8676,2.8689,2.8673,2.8676,2.8679,2.8671,2.8685,2.8678,2.869,2.8684,2.8691,2.868,2.8678,2.8681,2.8683,2.868,2.868,2.8678,2.8681,2.8686,2.8686,2.8686,2.8686,0,2.8652,2.8662,2.8647,2.8655,2.8656,2.8645,2.8652,2.8644,2.8651,2.8641,2.864,2.865,2.8645,2.8654,2.8649,2.8654,2.8639,2.8643,2.8639,2.864,2.8628,2.863,2.8581,2.8577,2.862,2.8619,2.8619,0,2.8622,2.8611,2.8619,2.8617,2.8618,2.8612,2.861,2.8624,2.8621,2.8624,2.8617,2.8614,2.8611,2.8603,2.861,2.8608,2.8613,2.8597,2.8612,2.8612,2.8615,2.8616,2.8617,2.8593,2.8592,2.8592,2.8592,0,2.857,2.8577,2.8573,2.8574,2.8572,2.8572,2.8573,2.857,2.8584,2.8581,2.8578,2.8576,2.8574,2.8572,2.8572,2.8575,2.8586,2.8587,2.8585,2.8581,2.858,2.8583,2.8631,2.8588,2.8588,2.8588,2.8589,2.8589,2.8531,2.8524,2.853,2.8527,2.853,2.8533,2.8527,2.8535,2.8533,2.8533,2.8541,2.8537,2.8542,2.8544,2.8547,2.8544,2.8552,2.8547,2.8546,2.8545,2.8544,2.8581,2.8544,2.8544,2.8544,2.8544,2.8544,0,2.8481,2.8487,2.8485,2.8488,2.8487,2.85,2.8504,2.8502,2.8498,2.8503,2.8502,2.85,2.8499,2.8508,2.8509,2.8506,2.8512,2.8506,2.8506,2.8507,2.8536,2.8539,2.8501,2.8501,2.8501,2.8501,2.8501,2.8501,2.8454,2.8444,2.8453,2.8446,2.8453,2.845,2.8451,2.8454,2.8458,2.8456,2.8456,2.8463,2.8471,2.8473,2.8474,2.8477,2.8477,2.8469,2.8474,2.8501,2.8505,2.8509,2.8512,2.8469,2.8469,2.8446,2.8446,2.8446]}]]